TimeCST,TemperatureF,Dew PointF,Humidity,Sea Level PressureIn,VisibilityMPH,Wind Direction,Wind SpeedMPH,Gust SpeedMPH,PrecipitationIn,Events,Conditions,WindDirDegrees,DateUTC
12:00 AM,40,17,27,30.16,,SE,6.9,,,,,130,2013-05-12 06:00:00
12:00 AM,39.9,17.4,40,30.16,-9999.0,SE,6.9,-,N/A,,Unknown,130,2013-05-12 06:00:00
1:00 AM,39.6,17.8,41,30.14,-9999.0,SE,6.9,-,N/A,,Unknown,140,2013-05-12 07:00:00
2:00 AM,38.3,18.1,44,30.14,-9999.0,ESE,8.1,-,N/A,,Unknown,120,2013-05-12 08:00:00
3:00 AM,36.0,18.7,50,30.12,-9999.0,ESE,4.6,-,N/A,,Unknown,120,2013-05-12 09:00:00
4:00 AM,31.1,19.0,61,30.11,-9999.0,SE,4.6,-,N/A,,Unknown,130,2013-05-12 10:00:00
5:00 AM,32.0,19.8,61,30.09,-9999.0,SE,6.9,-,N/A,,Unknown,140,2013-05-12 11:00:00
6:00 AM,33,21,49,30.08,,SE,5.8,,,,,130,2013-05-12 12:00:00
6:00 AM,33.4,20.8,60,30.08,-9999.0,SE,5.8,-,N/A,,Unknown,130,2013-05-12 12:00:00
7:00 AM,41.5,22.3,46,30.06,-9999.0,ESE,8.1,-,N/A,,Unknown,120,2013-05-12 13:00:00
8:00 AM,48.2,21.6,35,30.05,-9999.0,SE,9.2,-,N/A,,Unknown,140,2013-05-12 14:00:00
9:00 AM,56.1,23.7,29,30.02,-9999.0,SSE,12.7,-,N/A,,Unknown,150,2013-05-12 15:00:00
10:00 AM,63.9,27.1,25,29.99,-9999.0,SSE,15.0,-,N/A,,Unknown,150,2013-05-12 16:00:00
11:00 AM,69.4,28.8,22,29.96,-9999.0,SSE,19.6,25.3,N/A,,Unknown,160,2013-05-12 17:00:00
12:00 PM,71,28,11,29.93,,South,19.6,,,,,170,2013-05-12 18:00:00
12:00 PM,71.1,28.4,20,29.93,-9999.0,South,19.6,25.3,N/A,,Unknown,170,2013-05-12 18:00:00
1:00 PM,76.5,30.2,18,29.90,-9999.0,South,19.6,29.9,N/A,,Unknown,170,2013-05-12 19:00:00
2:00 PM,77.4,33.4,20,29.87,-9999.0,SSW,17.3,25.3,N/A,,Unknown,200,2013-05-12 20:00:00
3:00 PM,79.5,34.5,20,29.84,-9999.0,SSW,15.0,25.3,N/A,,Unknown,200,2013-05-12 21:00:00
4:00 PM,77.2,36.0,22,29.83,-9999.0,SW,15.0,20.7,N/A,,Unknown,230,2013-05-12 22:00:00
5:00 PM,78.8,37.8,23,29.79,-9999.0,SW,11.5,-,N/A,,Unknown,230,2013-05-12 23:00:00
6:00 PM,79,39,14,29.75,,SSW,13.8,,,,,210,2013-05-13 00:00:00
6:00 PM,79.0,39.0,24,29.75,-9999.0,SSW,13.8,-,N/A,,Unknown,210,2013-05-13 00:00:00
7:00 PM,78.1,40.5,26,29.72,-9999.0,South,9.2,-,N/A,,Unknown,190,2013-05-13 01:00:00
8:00 PM,72.1,41.5,33,29.69,-9999.0,South,8.1,-,N/A,,Unknown,190,2013-05-13 02:00:00
9:00 PM,69.8,41.5,36,29.68,-9999.0,SSW,12.7,-,N/A,,Unknown,210,2013-05-13 03:00:00
10:00 PM,68.9,42.4,38,29.68,-9999.0,SW,12.7,-,N/A,,Unknown,220,2013-05-13 04:00:00
11:00 PM,65.7,41.5,41,29.68,-9999.0,SW,11.5,-,N/A,,Unknown,230,2013-05-13 05:00:00